Baileyville, IL

5:36 AM CDT on September 27, 2016 (GMT -0500)
Albertus

Weather History for KFEP - April, 2014

Change the Weather History Date:

Saturday, April 5, 2014

  Actual Average Record
Temperature  
Mean Temperature 41 °F -  
Max Temperature 54 °F 51 °F 77 °F (2005)
Min Temperature 28 °F 32 °F 16 °F (1975)
Degree Days  
Heating Degree Days 24    
Moisture  
Dew Point 28 °F    
Average Humidity 66    
Maximum Humidity 90    
Minimum Humidity 33    
Precipitation  
Precipitation 0.00 in - - ()
Sea Level Pressure  
Sea Level Pressure 30.15 in    
Wind  
Wind Speed 7 mph (WSW)    
Max Wind Speed 14 mph    
Max Gust Speed 18 mph    
Visibility 10 miles    
Events      
Averages and records for this station are not official NWS values.
T = Trace of Precipitation, MM = Missing Value Source: NWS Daily Summary

Daily Weather History Graph

Daily Weather History Graph

Search for Another Location

Airport or City:

Trip Planner

Search our weather history database for the weather conditions in past years. The results will help you decide how hot, cold, wet, or windy it might be!

Date:

Astronomy

Apr. 05, 2014 Rise Set
Actual Time 6:34 AM CDT 7:28 PM CDT
Civil Twilight 6:05 AM CDT 7:57 PM CDT
Nautical Twilight 5:31 AM CDT 8:31 PM CDT
Astronomical Twilight 4:56 AM CDT 9:06 PM CDT
Moon 10:37 AM CDT (4/5) 12:42 AM CDT (4/5)
Length of Visible Light 13h 51m
Length of Day
12h 54m
Waxing Crescent, 34% of the Moon is Illuminated
Apr 5
Waxing Crescent
Apr 7
First Quarter
Apr 15
Full
Apr 22
Last Quarter
Apr 29
New

Hourly Weather History & Observations

Time (CDT) Temp. Windchill Dew Point Humidity Pressure Visibility Wind Dir Wind Speed Gust Speed Precip Events Conditions
12:15 AM 38.5 °F 31.1 °F 30.4 °F 73% 30.06 in 10.0 mi West 11.5 mph - N/A   Overcast
12:35 AM 36.1 °F 28.7 °F 28.4 °F 73% 30.06 in 10.0 mi WNW 10.4 mph 16.1 mph N/A   Overcast
12:55 AM 36.1 °F 27.7 °F 28.4 °F 73% 30.06 in 10.0 mi WNW 12.7 mph - N/A   Mostly Cloudy
1:15 AM 34.7 °F 27.5 °F 27.7 °F 76% 30.07 in 10.0 mi WNW 9.2 mph - N/A   Scattered Clouds
1:35 AM 33.8 °F 27.0 °F 27.1 °F 77% 30.08 in 10.0 mi WNW 8.1 mph - N/A   Clear
1:55 AM 33.8 °F 28.6 °F 27.9 °F 79% 30.08 in 10.0 mi West 5.8 mph - N/A   Clear
2:15 AM 33.8 °F 27.0 °F 28.4 °F 81% 30.09 in 10.0 mi West 8.1 mph - N/A   Clear
2:35 AM 33.8 °F 28.6 °F 29.1 °F 83% 30.09 in 10.0 mi West 5.8 mph - N/A   Clear
2:55 AM 33.8 °F 28.6 °F 28.8 °F 82% 30.10 in 10.0 mi West 5.8 mph - N/A   Clear
3:15 AM 33.8 °F 27.7 °F 28.9 °F 82% 30.10 in 10.0 mi West 6.9 mph - N/A   Clear
3:35 AM 33.8 °F 28.6 °F 29.3 °F 84% 30.11 in 10.0 mi West 5.8 mph - N/A   Clear
3:55 AM 31.5 °F 25.8 °F 27.1 °F 84% 30.11 in 10.0 mi West 5.8 mph - N/A   Clear
4:15 AM 31.5 °F 26.8 °F 27.1 °F 84% 30.11 in 10.0 mi West 4.6 mph - N/A   Clear
4:35 AM 31.5 °F 25.8 °F 27.5 °F 85% 30.11 in 10.0 mi WSW 5.8 mph - N/A   Clear
4:55 AM 31.1 °F 26.4 °F 27.5 °F 87% 30.12 in 10.0 mi West 4.6 mph - N/A   Clear
5:15 AM 29.1 °F 23.0 °F 25.9 °F 88% 30.12 in 10.0 mi West 5.8 mph - N/A   Clear
5:35 AM 28.8 °F 23.7 °F 25.7 °F 88% 30.13 in 10.0 mi West 4.6 mph - N/A   Clear
5:55 AM 28.8 °F 22.6 °F 25.7 °F 88% 30.14 in 10.0 mi WSW 5.8 mph - N/A   Clear
6:15 AM 28.9 °F 22.8 °F 25.7 °F 88% 30.15 in 10.0 mi West 5.8 mph - N/A   Clear
6:35 AM 28.9 °F 22.8 °F 25.7 °F 88% 30.15 in 10.0 mi West 5.8 mph - N/A   Clear
6:55 AM 28.8 °F 23.7 °F 25.7 °F 88% 30.16 in 10.0 mi West 4.6 mph - N/A   Clear
7:15 AM 28.8 °F 23.7 °F 26.1 °F 90% 30.17 in 10.0 mi WSW 4.6 mph - N/A   Clear
7:35 AM 31.1 °F 26.4 °F 28.4 °F 90% 30.18 in 10.0 mi West 4.6 mph - N/A   Clear
7:55 AM 33.8 °F 29.6 °F 30.9 °F 89% 30.19 in 7.0 mi West 4.6 mph - N/A   Clear
8:15 AM 33.8 °F 30.8 °F 30.6 °F 88% 30.19 in 10.0 mi West 3.5 mph - N/A   Clear
8:35 AM 34.5 °F 30.4 °F 31.5 °F 89% 30.20 in 10.0 mi West 4.6 mph - N/A   Clear
8:55 AM 36.1 °F 31.4 °F 32.0 °F 85% 30.20 in 10.0 mi West 5.8 mph - N/A   Clear
9:15 AM 38.3 °F 34.8 °F 33.4 °F 83% 30.21 in 10.0 mi West 4.6 mph - N/A   Clear
9:35 AM 38.7 °F 35.2 °F 32.7 °F 79% 30.21 in 10.0 mi West 4.6 mph - N/A   Clear
9:55 AM 40.3 °F 38.2 °F 31.8 °F 72% 30.21 in 10.0 mi West 3.5 mph - N/A   Clear
10:15 AM 41.2 °F 39.2 °F 30.0 °F 65% 30.21 in 10.0 mi West 3.5 mph - N/A   Clear
10:35 AM 43.2 °F 39.7 °F 29.5 °F 59% 30.21 in 10.0 mi West 5.8 mph - N/A   Clear
10:55 AM 45.0 °F 40.6 °F 27.3 °F 50% 30.21 in 10.0 mi WSW 8.1 mph - N/A   Clear
11:15 AM 43.9 °F 38.8 °F 27.3 °F 52% 30.22 in 10.0 mi West 9.2 mph - N/A   Clear
11:35 AM 45.1 °F 40.8 °F 27.9 °F 51% 30.21 in 10.0 mi SW 8.1 mph - N/A   Clear
11:55 AM 45.1 °F 41.4 °F 27.5 °F 50% 30.21 in 10.0 mi West 6.9 mph - N/A   Clear
12:15 PM 45.9 °F 41.2 °F 27.0 °F 48% 30.21 in 10.0 mi WSW 9.2 mph - N/A   Clear
12:35 PM 46.4 °F 43.5 °F 26.1 °F 45% 30.20 in 10.0 mi SSW 5.8 mph - N/A   Clear
12:55 PM 48.7 °F - 27.5 °F 44% 30.20 in 10.0 mi West 5.8 mph - N/A   Scattered Clouds
1:15 PM 49.1 °F - 25.3 °F 40% 30.20 in 10.0 mi Calm Calm - N/A   Clear
1:35 PM 47.5 °F - 25.2 °F 42% 30.20 in 10.0 mi SSW 3.5 mph - N/A   Clear
1:55 PM 50.5 °F - 28.4 °F 42% 30.19 in 10.0 mi SW 13.8 mph 18.4 mph N/A   Clear
2:15 PM 49.5 °F - 26.1 °F 40% 30.19 in 10.0 mi SW 9.2 mph - N/A   Clear
2:35 PM 51.1 °F - 25.5 °F 37% 30.19 in 10.0 mi SSW 8.1 mph - N/A   Clear
2:55 PM 51.8 °F - 23.7 °F 33% 30.18 in 10.0 mi SSW 6.9 mph - N/A   Clear
3:15 PM 51.4 °F - 23.9 °F 34% 30.17 in 10.0 mi SW 3.5 mph - N/A   Clear
3:35 PM 51.4 °F - 26.1 °F 37% 30.16 in 10.0 mi SW 8.1 mph - N/A   Clear
3:55 PM 51.4 °F - 26.2 °F 38% 30.16 in 10.0 mi SSW 9.2 mph - N/A   Clear
4:15 PM 54.0 °F - 26.8 °F 35% 30.16 in 10.0 mi WSW 5.8 mph 17.3 mph N/A   Clear
4:35 PM 54.0 °F - 27.0 °F 35% 30.15 in 10.0 mi WSW 8.1 mph - N/A   Clear
4:55 PM 53.2 °F - 26.8 °F 36% 30.15 in 10.0 mi SW 8.1 mph - N/A   Clear
5:15 PM 54.0 °F - 26.8 °F 35% 30.14 in 10.0 mi SSW 8.1 mph - N/A   Clear
5:35 PM 52.5 °F - 25.5 °F 35% 30.14 in 10.0 mi WSW 5.8 mph - N/A   Clear
5:55 PM 51.4 °F - 25.2 °F 36% 30.14 in 10.0 mi SSW 5.8 mph - N/A   Clear
6:15 PM 51.4 °F - 28.0 °F 40% 30.14 in 10.0 mi SSW 6.9 mph - N/A   Clear
6:35 PM 50.2 °F - 28.0 °F 42% 30.14 in 10.0 mi SSW 9.2 mph - N/A   Clear
6:55 PM 47.8 °F - 27.1 °F 45% 30.14 in 10.0 mi SSW 6.9 mph - N/A   Clear
7:15 PM 46.4 °F 43.5 °F 28.4 °F 50% 30.14 in 10.0 mi South 5.8 mph - N/A   Clear
7:35 PM 43.7 °F 40.3 °F 28.8 °F 56% 30.14 in 10.0 mi South 5.8 mph - N/A   Clear
7:55 PM 41.2 °F 36.6 °F 31.1 °F 67% 30.13 in 10.0 mi South 6.9 mph - N/A   Clear
8:15 PM 40.1 °F 35.3 °F 31.3 °F 71% 30.14 in 10.0 mi South 6.9 mph - N/A   Clear
8:35 PM 38.7 °F 33.6 °F 31.6 °F 76% 30.14 in 10.0 mi South 6.9 mph - N/A   Clear
8:55 PM 38.7 °F 32.9 °F 32.0 °F 77% 30.15 in 10.0 mi South 8.1 mph - N/A   Clear
9:15 PM 37.4 °F 32.8 °F 31.6 °F 80% 30.15 in 10.0 mi South 5.8 mph - N/A   Clear
9:35 PM 36.1 °F 30.6 °F 31.1 °F 82% 30.15 in 10.0 mi South 6.9 mph - N/A   Clear
9:55 PM 34.0 °F 28.8 °F 29.3 °F 83% 30.15 in 10.0 mi South 5.8 mph - N/A   Clear
10:15 PM 34.2 °F 27.5 °F 29.7 °F 84% 30.15 in 10.0 mi South 8.1 mph - N/A   Clear
10:35 PM 34.2 °F 27.5 °F 28.9 °F 81% 30.15 in 10.0 mi South 8.1 mph - N/A   Clear
10:55 PM 33.8 °F 27.7 °F 29.1 °F 83% 30.15 in 10.0 mi South 6.9 mph - N/A   Clear
11:15 PM 33.8 °F 27.0 °F 29.1 °F 83% 30.15 in 10.0 mi South 8.1 mph - N/A   Clear
11:35 PM 34.9 °F 28.3 °F 30.0 °F 82% 30.15 in 10.0 mi South 8.1 mph - N/A   Clear
11:55 PM 35.6 °F 29.9 °F 30.2 °F 81% 30.15 in 10.0 mi South 6.9 mph - N/A   Clear